Flag for U.S.A. Weather past 2 weeks in Washington DC, District of Columbia, U.S.A.

Now
34 °F

Overcast.


Feels Like: 25 °F
Forecast: 22 / 36 °F
Wind: 13 mph from South

Location: Reagan National Airport

Current Time: Mar 3, 2015 at 2:39:49 PM

Latest Report: Mar 3, 2015 at 1:52 PM


Visibility: 10 mi

Pressure: 30.27 "Hg

Humidity: 59%

Dew point: 21 °F

Location of Washington DCLocation

Historic Weather in Washington DC — Graph

°F

Washington DC temperature yesterday

Maximum temperature yesterday: 45 °F (at 11:52 AM)
Minimum temperature yesterday: 33 °F (at 11:52 PM)
Average temperature yesterday: 38 °F

Past Weeks' High & Low Weather Summary

 TemperatureHumidityPressure
High49 °F (Feb 22, 3:52 PM)88% (Feb 22, 3:52 AM)30.88 "Hg (Feb 22, 3:52 AM)
Low6 °F (Feb 20, 5:52 AM)23% (Feb 20, 4:52 PM)29.73 "Hg (Feb 18, 4:52 PM)
Average28 °F54%30.24 "Hg
* Reported Feb 16 12:52 PM — Mar 3 12:52 PM, Washington DC, Weather by CustomWeather, © 2015

Note: Actual official high and low records may vary slightly from our data, if they occured in-between our weather recording intervals... More about our weather records

Advertising

Washington DC weather history for previous 24 hours

 ConditionsComfort  
Time TempWeatherWind HumidityBarometerVisibility
12:52 PM
Tue, Mar 3
35 °FLight rain. Overcast.10 mph56%30.32 "Hg10 mi
12:04 PM36 °FLight rain. Cloudy.12 mph52%30.36 "Hg10 mi
11:52 AM36 °FMostly cloudy.12 mph48%30.37 "Hg10 mi
10:52 AM34 °FMostly cloudy.8 mph48%30.41 "Hg10 mi
9:52 AM34 °FOvercast.7 mph48%30.43 "Hg10 mi
8:52 AM33 °FMore clouds than sun.8 mph48%30.45 "Hg10 mi
7:52 AM32 °FMostly cloudy.No wind52%30.45 "Hg10 mi
6:52 AM31 °FMore clouds than sun.3 mph54%30.44 "Hg10 mi
5:52 AM31 °FOvercast.6 mph54%30.44 "Hg10 mi
4:52 AM31 °FOvercast.5 mph59%30.42 "Hg10 mi
3:52 AM31 °FOvercast.7 mph57%30.42 "Hg10 mi
2:52 AM32 °FOvercast.9 mph52%30.41 "Hg10 mi
1:52 AM32 °FPassing clouds.8 mph52%30.42 "Hg10 mi
12:52 AM33 °FPassing clouds.7 mph48%30.43 "Hg10 mi
11:52 PM
Mon, Mar 2
33 °FPassing clouds.8 mph48%30.43 "Hg10 mi
10:52 PM34 °FPassing clouds.8 mph48%30.45 "Hg10 mi
9:52 PM35 °FPassing clouds.7 mph46%30.43 "Hg10 mi
8:52 PM36 °FPassing clouds.9 mph44%30.42 "Hg10 mi
7:52 PM37 °FClear.10 mph42%30.41 "Hg10 mi
6:52 PM39 °FClear.14 mph39%30.37 "Hg10 mi
5:52 PM41 °FPassing clouds.16 mph36%30.35 "Hg10 mi
4:52 PM44 °FPassing clouds.16 mph32%30.32 "Hg10 mi
3:52 PM44 °FPassing clouds.17 mph32%30.31 "Hg10 mi
2:52 PM45 °FScattered clouds.21 mph34%30.29 "Hg10 mi
Weather by CustomWeather, © 2015

See weather overviewHow to use our weather pages